Location: Newark
(0.5300°S, 127.4800°E)
Time: 05:52:37
(UTC+00:00)

Vanguard 3 - Pass Details

Date: 25 September 2019
Orbit: 508 x 3262 km, 33.3° (Epoch: 17 October)

Event Time Altitude Azimuth Distance (km) Brightness Sun altitude
Rises 03:21:38 0° 318° (NW) 7,065 11.9 89.8°
Reaches altitude 10° 03:27:22 10° 328° (NNW) 6,169 11.8 88.6°
Maximum altitude 03:44:04 32° 25° (NNE) 4,317 11.3 84.5°
Drops below altitude 10° 03:57:29 10° 82° (E) 5,046 11.2 81.1°
Sets 04:01:28 0° 92° (E) 5,689 11.4 80.1°
